Weather History for KDUA - December, 2013

Change the Weather History Date:

Thursday, December 26, 2013

  Actual Average (KADM) Record (KADM)
Temperature  
Mean Temperature 44 °F -  
Max Temperature 59 °F 51 °F 80 °F (2008)
Min Temperature 28 °F 31 °F 19 °F (1998)
Degree Days  
Heating Degree Days 22    
Moisture  
Dew Point 33 °F    
Average Humidity 80    
Maximum Humidity 100    
Minimum Humidity 36    
Precipitation  
Precipitation 0.00 in - - ()
Sea Level Pressure  
Sea Level Pressure 30.39 in    
Wind  
Wind Speed 3 mph (NNW)    
Max Wind Speed 9 mph    
Max Gust Speed -    
Visibility 8 miles    
Events      
Averages and records for this station are not official NWS values.
T = Trace of Precipitation, MM = Missing Value Source: NWS Daily Summary

Daily Weather History Graph

Daily Weather History Graph

Search for Another Location

Airport or City:

Trip Planner

Search our weather history database for the weather conditions in past years. The results will help you decide how hot, cold, wet, or windy it might be!

Date:

Astronomy

Dec. 26, 2013 Rise Set
Actual Time 7:29 AM CST 5:23 PM CST
Civil Twilight 7:01 AM CST 5:51 PM CST
Nautical Twilight 6:30 AM CST 6:22 PM CST
Astronomical Twilight 5:59 AM CST 6:53 PM CST
Moon 1:10 AM CST (12/26) 12:48 PM CST (12/26)
Length of Visible Light 10h 49m
Length of Day
9h 54m
Last Quarter, 38% of the Moon is Illuminated
Dec 26
Last Quarter
Jan 1
New
Jan 7
First Quarter
Jan 15
Full
Jan 23
Last Quarter

Hourly Weather History & Observations

Time (CST) Temp. Windchill Dew Point Humidity Pressure Visibility Wind Dir Wind Speed Gust Speed Precip Events Conditions
12:15 AM 32.0 °F 25.6 °F 32.0 °F 100% 30.42 in 5.0 mi North 6.9 mph - N/A   Clear
12:35 AM 32.0 °F 26.4 °F 32.0 °F 100% 30.42 in 5.0 mi North 5.8 mph - N/A   Clear
12:55 AM 32.0 °F 28.7 °F 32.0 °F 100% 30.42 in 4.0 mi NNW 3.5 mph - N/A   Clear
1:15 AM 32.0 °F 25.6 °F 32.0 °F 100% 30.41 in 4.0 mi NNW 6.9 mph - N/A   Clear
1:35 AM 32.0 °F 26.4 °F 32.0 °F 100% 30.41 in 5.0 mi NNW 5.8 mph - N/A   Clear
1:55 AM 32.0 °F 28.7 °F 32.0 °F 100% 30.41 in 4.0 mi North 3.5 mph - N/A   Clear
2:15 AM 32.0 °F - 30.2 °F 93% 30.41 in 4.0 mi Calm Calm - N/A   Clear
2:35 AM 32.0 °F 28.7 °F 30.2 °F 93% 30.41 in 3.0 mi NW 3.5 mph - N/A   Clear
2:55 AM 32.0 °F - 30.2 °F 93% 30.41 in 4.0 mi Calm Calm - N/A   Clear
3:15 AM 30.2 °F - 30.2 °F 100% 30.41 in 4.0 mi Calm Calm - N/A   Clear
3:35 AM 30.2 °F - 30.2 °F 100% 30.40 in 3.0 mi Calm Calm - N/A   Clear
3:55 AM 30.2 °F 26.7 °F 30.2 °F 100% 30.40 in 3.0 mi NNW 3.5 mph - N/A   Clear
4:15 AM 30.2 °F 25.4 °F 30.2 °F 100% 30.40 in 3.0 mi NNW 4.6 mph - N/A   Clear
4:35 AM 30.2 °F 26.7 °F 30.2 °F 100% 30.40 in 4.0 mi West 3.5 mph - N/A   Clear
4:55 AM 30.2 °F - 28.4 °F 93% 30.39 in 4.0 mi Calm Calm - N/A   Clear
5:15 AM 28.4 °F 23.3 °F 28.4 °F 100% 30.40 in 5.0 mi NW 4.6 mph - N/A   Clear
5:35 AM 30.2 °F 25.4 °F 28.4 °F 93% 30.39 in 5.0 mi NNW 4.6 mph - N/A   Clear
5:55 AM 28.4 °F 23.3 °F 28.4 °F 100% 30.40 in 4.0 mi NNW 4.6 mph - N/A   Clear
6:15 AM 28.4 °F - 28.4 °F 100% 30.40 in 4.0 mi Calm Calm - N/A   Clear
6:35 AM 28.4 °F 23.3 °F 26.6 °F 93% 30.40 in 4.0 mi NW 4.6 mph - N/A   Clear
6:55 AM 28.4 °F 24.6 °F 28.4 °F 100% 30.40 in 5.0 mi WNW 3.5 mph - N/A   Clear
7:15 AM 30.2 °F 24.3 °F 28.4 °F 93% 30.40 in 5.0 mi NW 5.8 mph - N/A   Clear
7:35 AM 30.2 °F 23.4 °F 28.4 °F 93% 30.41 in 5.0 mi NW 6.9 mph - N/A   Clear
7:55 AM 30.2 °F 24.3 °F 30.2 °F 100% 30.42 in 4.0 mi NW 5.8 mph - N/A   Clear
8:15 AM 32.0 °F - 30.2 °F 93% 30.43 in 4.0 mi Calm Calm - N/A   Clear
8:35 AM 32.0 °F 28.7 °F 32.0 °F 100% 30.43 in 4.0 mi NW 3.5 mph - N/A   Clear
8:55 AM 33.8 °F - 32.0 °F 93% 30.44 in 4.0 mi Calm Calm - N/A   Clear
9:15 AM 35.6 °F 32.8 °F 33.8 °F 93% 30.44 in 4.0 mi North 3.5 mph - N/A   Clear
9:35 AM 37.4 °F 34.9 °F 35.6 °F 93% 30.44 in 5.0 mi NNE 3.5 mph - N/A   Clear
9:55 AM 39.2 °F 35.9 °F 37.4 °F 93% 30.44 in 7.0 mi NE 4.6 mph - N/A   Clear
10:15 AM 41.0 °F 38.0 °F 37.4 °F 87% 30.45 in 10.0 mi NNE 4.6 mph - N/A   Clear
10:35 AM 42.8 °F 41.1 °F 41.0 °F 93% 30.45 in 10.0 mi East 3.5 mph - N/A   Clear
10:55 AM 46.4 °F - 42.8 °F 87% 30.45 in 10.0 mi Calm Calm - N/A   Clear
11:15 AM 48.2 °F - 44.6 °F 87% 30.45 in 10.0 mi ESE 3.5 mph - N/A   Clear
11:35 AM 50.0 °F - 46.4 °F 87% 30.43 in 10.0 mi Calm Calm - N/A   Clear
11:55 AM 50.0 °F - 44.6 °F 82% 30.42 in 10.0 mi Calm Calm - N/A   Clear
12:15 PM 51.8 °F - 42.8 °F 71% 30.41 in 10.0 mi SSE 3.5 mph - N/A   Clear
12:35 PM 51.8 °F - 41.0 °F 67% 30.40 in 10.0 mi Calm Calm - N/A   Clear
12:55 PM 53.6 °F - 37.4 °F 54% 30.39 in 10.0 mi Calm Calm - N/A   Clear
1:15 PM 55.4 °F - 42.8 °F 63% 30.37 in 10.0 mi Calm Calm - N/A   Clear
1:35 PM 55.4 °F - 41.0 °F 58% 30.37 in 10.0 mi Calm Calm - N/A   Clear
1:55 PM 57.2 °F - 35.6 °F 44% 30.36 in 10.0 mi Calm Calm - N/A   Clear
2:15 PM 59.0 °F - 37.4 °F 45% 30.35 in 10.0 mi Calm Calm - N/A   Clear
2:35 PM 59.0 °F - 37.4 °F 45% 30.34 in 10.0 mi Calm Calm - N/A   Clear
2:55 PM 59.0 °F - 35.6 °F 42% 30.34 in 10.0 mi Calm Calm - N/A   Clear
3:15 PM 59.0 °F - 32.0 °F 36% 30.34 in 10.0 mi Calm Calm - N/A   Clear
3:35 PM 59.0 °F - 32.0 °F 36% 30.34 in 10.0 mi Calm Calm - N/A   Clear
3:55 PM 59.0 °F - 32.0 °F 36% 30.34 in 10.0 mi Calm Calm - N/A   Clear
4:15 PM 59.0 °F - 32.0 °F 36% 30.34 in 10.0 mi Calm Calm - N/A   Clear
4:35 PM 57.2 °F - 32.0 °F 38% 30.35 in 10.0 mi Calm Calm - N/A   Clear
4:55 PM 55.4 °F - 30.2 °F 38% 30.35 in 10.0 mi Calm Calm - N/A   Clear
5:15 PM 51.8 °F - 30.2 °F 44% 30.35 in 10.0 mi ESE 3.5 mph - N/A   Clear
5:35 PM 46.4 °F 45.2 °F 28.4 °F 50% 30.35 in 10.0 mi SE 3.5 mph - N/A   Clear
5:55 PM 42.8 °F - 30.2 °F 61% 30.36 in 10.0 mi Calm Calm - N/A   Clear
6:15 PM 41.0 °F 39.0 °F 32.0 °F 70% 30.36 in 10.0 mi SSW 3.5 mph - N/A   Clear
6:35 PM 41.0 °F 39.0 °F 32.0 °F 70% 30.37 in 10.0 mi SW 3.5 mph - N/A   Clear
6:55 PM 41.0 °F - 32.0 °F 70% 30.37 in 10.0 mi Calm Calm - N/A   Clear
7:15 PM 41.0 °F - 30.2 °F 65% 30.37 in 10.0 mi Calm Calm - N/A   Clear
7:35 PM 37.4 °F - 30.2 °F 75% 30.37 in 10.0 mi Calm Calm - N/A   Clear
7:55 PM 35.6 °F 32.8 °F 28.4 °F 75% 30.38 in 10.0 mi SE 3.5 mph - N/A   Clear
8:15 PM 35.6 °F 31.7 °F 32.0 °F 87% 30.37 in 10.0 mi SSE 4.6 mph - N/A   Clear
8:35 PM 35.6 °F 28.6 °F 32.0 °F 87% 30.37 in 10.0 mi South 9.2 mph - N/A   Clear
8:55 PM 35.6 °F 29.9 °F 32.0 °F 87% 30.37 in 10.0 mi South 6.9 mph - N/A   Clear
9:15 PM 35.6 °F 29.9 °F 32.0 °F 87% 30.38 in 10.0 mi South 6.9 mph - N/A   Clear
9:35 PM 35.6 °F 32.8 °F 32.0 °F 87% 30.39 in 10.0 mi SSW 3.5 mph - N/A   Clear
9:55 PM 35.6 °F - 30.2 °F 81% 30.39 in 10.0 mi Calm Calm - N/A   Clear
10:15 PM 33.8 °F - 30.2 °F 87% 30.39 in 10.0 mi Calm Calm - N/A   Clear
10:35 PM 33.8 °F - 30.2 °F 87% 30.40 in 10.0 mi Calm Calm - N/A   Clear
10:55 PM 33.8 °F - 32.0 °F 93% 30.40 in 10.0 mi Calm Calm - N/A   Clear
11:15 PM 33.8 °F - 32.0 °F 93% 30.40 in 10.0 mi Calm Calm - N/A   Clear
11:35 PM 33.8 °F - 32.0 °F 93% 30.40 in 10.0 mi Calm Calm - N/A   Clear
11:55 PM 33.8 °F 30.8 °F 32.0 °F 93% 30.40 in 10.0 mi North 3.5 mph - N/A   Clear